Starlink 3619

operational
NORAD ID: 51787 Int'l Des: 2022-017 Owner: SPXS Country: US Constellation: starlink
LEOCIRCULAR

关于 Starlink 3619

正在加载描述...

实时位置

正在加载3D地球...

即将过境

高度历史

Altitude vs Time

uPlot chart will show altitude changes over time

两行轨道根数

1 51787U 22017V 25308.41147480 -.00000457 00000-0 -10619-4 0 9996
2 51787 53.2171 191.5182 0001598 77.7604 282.3567 15.08842899203361
Epoch: Nov 4, 2025 • Age: 9 hours

当前状态

高度 559.2 km
速度 7.58 km/s
星下点 -52.99°S, 139.33°E
发射日期 Feb 25, 2022
运行时间 3.6 years
类型 internet

技术详情

分类 Payload
质量 297.00 kg
干质量 275.00 kg
总质量 297.00 kg
长度 0.20 m
直径 2.80 m
跨度 9.00 m
形状 Box + pan
制造商 SPXS
平台类型 Starlink
阶段状态 In Orbit
所有者/国家 SPXS/US

大型星座

Loading constellations...